Kezdőlap
METAR-TAF:

METAR-TAF

Repülőterek :

Independence Municipal Airport

Independence, Iowa, Amerikai Egyesült Államok

földrajzi szélesség: 42-27N, földrajzi hosszúság: 091-56W, magasság: 298 m

Jelenlegi meteorológiai megfigyelések

A jelentés 33 perccel ezelõtt készült, 13:15 UTC
Északi szél 6 kt
Hőmérséklet -1°C
Páratartalom 74%
Légköri nyomás 1009 hPa
Látótávolság: 16.1 km
Derült ég

METAR: KIIB 221315Z AUTO 35006KT 10SM CLR M01/M05 A2981 RMK AO2 T10131046

Idő: 07:48 (13:48 UTC)


TAF: hiányzik

Meteorológiai megfigyelések és előrejelzések több, mint 4000 repülőtéren (METAR és TAF jelentéseket).

A térképen piros és sárga pontok jelzik az elérhető meteorológiai állomásokat.

Mozgassa az egeret a pont fölött, hogy megjelenjen az állomás neve.

Azután kattintson az időjárási megfigyelések és előrejelzések megtekintéséhez.

A térkép megváltoztatása: kattintson a fekete keresztel jelölt zöld gombra ráközelítéshez, a vonallal jelölt zöld gombra távolításhoz, vagy a zöld nyilakra a szomszédos térképek eléréséhez.


METAR-TAF: